| time (UTC) | temp F | wind direction | speed MPH | gust MPH | rain 1hr in | rain 24hr in | rain mn in | humidity % | barometer mb |
| 20260505223041 | 51 | 0 | 0.0 | 1.0 | 0.00 | 0.03 | 0.00 | 100 | 1017.3 |
| 20260505222902 | 52 | 165 | 0.0 | 3.0 | 0.00 | 0.11 | 0.00 | 90 | 1017.0 |
| 20260505222401 | 52 | 135 | 0.0 | 3.0 | 0.00 | 0.11 | 0.00 | 90 | 1016.9 |
| 20260505221902 | 52 | 161 | 1.0 | 2.0 | 0.00 | 0.11 | 0.00 | 89 | 1016.9 |
| 20260505221539 | 52 | 0 | 0.0 | 1.0 | 0.00 | 0.03 | 0.00 | 100 | 1017.2 |
| 20260505221402 | 52 | 206 | 0.0 | 1.0 | 0.00 | 0.11 | 0.00 | 88 | 1016.9 |
| 20260505220902 | 52 | 135 | 0.0 | 1.0 | 0.00 | 0.11 | 0.00 | 88 | 1016.9 |
| 20260505220402 | 52 | 178 | 0.0 | 2.0 | 0.00 | 0.11 | 0.00 | 88 | 1016.9 |
| 20260505220043 | 52 | 0.0 | 1.0 | 0.00 | 0.03 | 0.00 | 100 | 1017.2 | |
| 20260505215902 | 53 | 206 | 1.0 | 2.0 | 0.00 | 0.11 | 0.11 | 88 | 1016.9 |
| 20260505215402 | 53 | 152 | 1.0 | 1.0 | 0.00 | 0.11 | 0.11 | 88 | 1016.9 |
| 20260505214901 | 53 | 135 | 0.0 | 1.0 | 0.00 | 0.11 | 0.11 | 88 | 1016.9 |
| 20260505214537 | 52 | 0 | 0.0 | 1.0 | 0.00 | 0.03 | 0.03 | 100 | 1017.2 |
| 20260505214402 | 53 | 135 | 0.0 | 1.0 | 0.00 | 0.11 | 0.11 | 88 | 1016.8 |
| 20260505214131 | 53 | 178 | 0.0 | 2.0 | 0.00 | 0.11 | 0.11 | 88 | 1016.8 |
| 20260505213402 | 53 | 161 | 1.0 | 2.0 | 0.00 | 0.11 | 0.11 | 88 | 1016.8 |
| 20260505213041 | 53 | 149 | 1.0 | 1.0 | 0.00 | 0.03 | 0.03 | 100 | 1017.3 |
| 20260505212902 | 53 | 157 | 1.0 | 1.0 | 0.00 | 0.11 | 0.11 | 87 | 1016.9 |
| 20260505212402 | 53 | 135 | 0.0 | 1.0 | 0.00 | 0.11 | 0.11 | 87 | 1016.9 |
| 20260505211902 | 53 | 135 | 0.0 | 1.0 | 0.00 | 0.11 | 0.11 | 87 | 1016.9 |
| 20260505211544 | 53 | 0 | 0.0 | 0.0 | 0.00 | 0.03 | 0.03 | 100 | 1017.2 |
| 20260505211402 | 53 | 45 | 0.0 | 1.0 | 0.00 | 0.11 | 0.11 | 87 | 1016.9 |
| 20260505210903 | 53 | 117 | 0.0 | 1.0 | 0.00 | 0.11 | 0.11 | 86 | 1016.9 |
| 20260505210401 | 53 | 117 | 0.0 | 1.0 | 0.00 | 0.11 | 0.11 | 86 | 1016.9 |
| 20260505210039 | 53 | 0 | 0.0 | 0.0 | 0.00 | 0.03 | 0.03 | 100 | 1017.2 |
| 20260505205902 | 54 | 135 | 0.0 | 1.0 | 0.00 | 0.11 | 0.11 | 86 | 1016.9 |
| 20260505205402 | 54 | 89 | 0.0 | 1.0 | 0.00 | 0.11 | 0.11 | 86 | 1016.9 |
| 20260505204902 | 54 | 117 | 0.0 | 1.0 | 0.00 | 0.11 | 0.11 | 86 | 1016.8 |
| 20260505204620 | 54 | 135 | 0.0 | 1.0 | 0.00 | 0.11 | 0.11 | 86 | 1016.9 |
| 20260505204539 | 54 | 93 | 0.0 | 1.0 | 0.00 | 0.03 | 0.03 | 100 | 1017.2 |
| 20260505203902 | 54 | 135 | 0.0 | 1.0 | 0.00 | 0.11 | 0.11 | 86 | 1016.9 |
| 20260505203403 | 54 | 161 | 1.0 | 1.0 | 0.00 | 0.11 | 0.11 | 86 | 1016.9 |
| 20260505203044 | 54 | 162 | 1.0 | 1.0 | 0.00 | 0.03 | 0.03 | 100 | 1017.2 |
| 20260505202901 | 54 | 161 | 1.0 | 1.0 | 0.00 | 0.11 | 0.11 | 85 | 1016.9 |
| 20260505202402 | 54 | 89 | 0.0 | 1.0 | 0.00 | 0.11 | 0.11 | 85 | 1016.8 |
| 20260505201902 | 54 | 269 | 1.0 | 1.0 | 0.00 | 0.11 | 0.11 | 85 | 1016.7 |
| 20260505201625 | 54 | 197 | 0.0 | 1.0 | 0.00 | 0.11 | 0.11 | 85 | 1016.7 |
| 20260505201545 | 55 | 178 | 0.0 | 1.0 | 0.00 | 0.03 | 0.03 | 100 | 1017.0 |
| 20260505200901 | 55 | 223 | 1.0 | 2.0 | 0.00 | 0.11 | 0.11 | 85 | 1016.6 |
| 20260505200402 | 55 | 152 | 1.0 | 2.0 | 0.00 | 0.11 | 0.11 | 85 | 1016.5 |
| 20260505200126 | 55 | 269 | 0.0 | 2.0 | 0.00 | 0.11 | 0.11 | 84 | 1016.5 |
| 20260505200039 | 55 | 212 | 0.0 | 1.0 | 0.00 | 0.03 | 0.03 | 100 | 1016.8 |
| 20260505195401 | 55 | 269 | 0.0 | 2.0 | 0.00 | 0.11 | 0.11 | 84 | 1016.4 |
| 20260505194902 | 55 | 296 | 1.0 | 3.0 | 0.00 | 0.11 | 0.11 | 83 | 1016.4 |
| 20260505194542 | 55 | 336 | 2.0 | 2.0 | 0.00 | 0.03 | 0.03 | 100 | 1016.6 |
| 20260505194401 | 55 | 351 | 1.0 | 3.0 | 0.00 | 0.11 | 0.11 | 83 | 1016.4 |
| 20260505193902 | 55 | 331 | 1.0 | 3.0 | 0.00 | 0.11 | 0.11 | 83 | 1016.3 |
| 20260505193632 | 56 | 45 | 2.0 | 3.0 | 0.00 | 0.11 | 0.11 | 82 | 1016.3 |
| 20260505193057 | 55 | 316 | 1.0 | 2.0 | 0.00 | 0.03 | 0.03 | 100 | 1016.6 |
| 20260505192830 | 56 | 314 | 0.0 | 3.0 | 0.00 | 0.11 | 0.11 | 82 | 1016.3 |
| 20260505192331 | 56 | 303 | 1.0 | 4.0 | 0.00 | 0.11 | 0.11 | 82 | 1016.2 |
| 20260505191831 | 56 | 303 | 2.0 | 4.0 | 0.00 | 0.11 | 0.11 | 82 | 1016.3 |
| 20260505191540 | 56 | 321 | 2.0 | 3.0 | 0.00 | 0.03 | 0.03 | 100 | 1016.5 |
| 20260505191324 | 56 | 337 | 2.0 | 4.0 | 0.00 | 0.11 | 0.11 | 82 | 1016.3 |
| 20260505190818 | 57 | 343 | 2.0 | 4.0 | 0.00 | 0.11 | 0.11 | 81 | 1016.2 |
| 20260505190316 | 57 | 269 | 1.0 | 4.0 | 0.00 | 0.11 | 0.11 | 81 | 1016.2 |
| 20260505190040 | 56 | 309 | 0.0 | 4.0 | 0.00 | 0.03 | 0.03 | 80 | 1016.5 |
| 20260505185818 | 57 | 307 | 1.0 | 4.0 | 0.00 | 0.11 | 0.11 | 80 | 1016.2 |
| 20260505185316 | 57 | 331 | 2.0 | 4.0 | 0.00 | 0.11 | 0.11 | 79 | 1016.2 |
| 20260505185042 | 58 | 231 | 2.0 | 5.0 | 0.00 | 0.11 | 0.11 | 79 | 1016.1 |
| 20260505184540 | 57 | 9 | 2.0 | 5.0 | 0.00 | 0.03 | 0.03 | 98 | 1016.3 |
| 20260505184316 | 58 | 306 | 2.0 | 5.0 | 0.00 | 0.11 | 0.11 | 78 | 1016.1 |
| 20260505183817 | 58 | 314 | 2.0 | 4.0 | 0.00 | 0.11 | 0.11 | 78 | 1016.0 |
| 20260505183313 | 58 | 336 | 3.0 | 6.0 | 0.00 | 0.11 | 0.11 | 78 | 1016.0 |
| 20260505183040 | 58 | 314 | 3.0 | 4.0 | 0.00 | 0.03 | 0.03 | 76 | 1016.3 |
| 20260505182810 | 58 | 316 | 4.0 | 6.0 | 0.00 | 0.11 | 0.11 | 77 | 1016.0 |
| 20260505182310 | 58 | 300 | 3.0 | 9.0 | 0.00 | 0.11 | 0.11 | 77 | 1015.9 |
| 20260505181803 | 58 | 329 | 4.0 | 9.0 | 0.00 | 0.11 | 0.11 | 77 | 1016.0 |
| 20260505181540 | 58 | 323 | 2.0 | 5.0 | 0.00 | 0.03 | 0.03 | 76 | 1016.3 |
| 20260505181302 | 58 | 337 | 3.0 | 7.0 | 0.00 | 0.11 | 0.11 | 76 | 1016.0 |
| 20260505180802 | 59 | 1 | 4.0 | 9.0 | 0.00 | 0.11 | 0.11 | 76 | 1015.9 |
| 20260505180302 | 59 | 350 | 5.0 | 9.0 | 0.00 | 0.11 | 0.11 | 76 | 1016.0 |
| 20260505180040 | 58 | 26 | 3.0 | 8.0 | 0.00 | 0.03 | 0.03 | 97 | 1016.3 |
| 20260505175801 | 59 | 321 | 3.0 | 6.0 | 0.00 | 0.11 | 0.11 | 77 | 1015.9 |
| 20260505175305 | 59 | 309 | 3.0 | 5.0 | 0.00 | 0.11 | 0.11 | 77 | 1016.0 |
| 20260505174804 | 59 | 279 | 2.0 | 4.0 | 0.00 | 0.11 | 0.11 | 77 | 1016.1 |
| 20260505174533 | 59 | 34 | 2.0 | 5.0 | 0.00 | 0.03 | 0.03 | 97 | 1016.4 |
| 20260505174523 | 59 | 331 | 2.0 | 6.0 | 0.00 | 0.11 | 0.11 | 77 | 1016.1 |
| 20260505173802 | 59 | 341 | 4.0 | 6.0 | 0.00 | 0.11 | 0.11 | 77 | 1016.1 |
| 20260505173303 | 59 | 320 | 3.0 | 6.0 | 0.00 | 0.11 | 0.11 | 75 | 1016.1 |
| 20260505173035 | 59 | 317 | 3.0 | 4.0 | 0.00 | 0.03 | 0.03 | 75 | 1016.4 |
| 20260505172802 | 59 | 254 | 3.0 | 4.0 | 0.00 | 0.11 | 0.11 | 75 | 1016.1 |
| 20260505172305 | 59 | 309 | 3.0 | 5.0 | 0.00 | 0.11 | 0.11 | 75 | 1016.1 |
| 20260505172022 | 59 | 299 | 3.0 | 6.0 | 0.00 | 0.11 | 0.11 | 74 | 1016.1 |
| 20260505171538 | 59 | 316 | 3.0 | 8.0 | 0.00 | 0.03 | 0.03 | 73 | 1016.4 |
| 20260505171302 | 59 | 252 | 3.0 | 6.0 | 0.00 | 0.11 | 0.11 | 74 | 1016.1 |
| 20260505170802 | 59 | 293 | 4.0 | 6.0 | 0.00 | 0.11 | 0.11 | 72 | 1016.1 |
| 20260505170302 | 59 | 354 | 4.0 | 5.0 | 0.00 | 0.11 | 0.11 | 71 | 1016.0 |
| 20260505170039 | 60 | 323 | 2.0 | 4.0 | 0.00 | 0.03 | 0.03 | 91 | 1016.3 |
| 20260505165802 | 60 | 344 | 3.0 | 7.0 | 0.00 | 0.11 | 0.11 | 71 | 1016.0 |
| 20260505165305 | 60 | 310 | 3.0 | 10.0 | 0.00 | 0.11 | 0.11 | 72 | 1016.0 |
| 20260505164801 | 60 | 312 | 5.0 | 10.0 | 0.00 | 0.11 | 0.11 | 70 | 1016.0 |
| 20260505164540 | 61 | 317 | 4.0 | 9.0 | 0.00 | 0.03 | 0.03 | 90 | 1016.3 |
| 20260505164302 | 61 | 20 | 4.0 | 11.0 | 0.00 | 0.11 | 0.11 | 71 | 1015.9 |
| 20260505163801 | 61 | 351 | 4.0 | 11.0 | 0.00 | 0.11 | 0.11 | 72 | 1015.9 |
| 20260505163302 | 61 | 324 | 4.0 | 11.0 | 0.00 | 0.11 | 0.11 | 72 | 1015.8 |
| 20260505163040 | 61 | 342 | 6.0 | 9.0 | 0.00 | 0.03 | 0.03 | 92 | 1016.1 |
| 20260505162802 | 61 | 314 | 4.0 | 7.0 | 0.00 | 0.11 | 0.11 | 73 | 1015.8 |
| 20260505162302 | 61 | 320 | 4.0 | 7.0 | 0.00 | 0.11 | 0.11 | 74 | 1015.9 |
| 20260505161802 | 61 | 316 | 4.0 | 6.0 | 0.00 | 0.11 | 0.11 | 72 | 1015.9 |
| 20260505161535 | 60 | 269 | 4.0 | 8.0 | 0.00 | 0.03 | 0.03 | 70 | 1016.2 |
| 20260505161304 | 61 | 334 | 3.0 | 7.0 | 0.00 | 0.11 | 0.11 | 71 | 1015.9 |
| 20260505160801 | 61 | 305 | 3.0 | 7.0 | 0.00 | 0.11 | 0.11 | 71 | 1015.8 |
| 20260505160302 | 61 | 351 | 4.0 | 9.0 | 0.00 | 0.11 | 0.11 | 71 | 1015.9 |
| 20260505153302 | 61 | 258 | 4.0 | 7.0 | 0.00 | 0.11 | 0.11 | 71 | 1015.8 |
| 20260505153043 | 60 | 235 | 4.0 | 7.0 | 0.00 | 0.03 | 0.03 | 71 | 1016.1 |
| 20260505152802 | 61 | 306 | 4.0 | 9.0 | 0.00 | 0.11 | 0.11 | 73 | 1015.8 |
| 20260505152305 | 60 | 298 | 4.0 | 9.0 | 0.00 | 0.11 | 0.11 | 77 | 1015.9 |
| 20260505151801 | 60 | 331 | 2.0 | 9.0 | 0.00 | 0.11 | 0.11 | 77 | 1015.9 |
| 20260505151539 | 59 | 305 | 3.0 | 10.0 | 0.00 | 0.03 | 0.03 | 95 | 1016.2 |
| 20260505151302 | 60 | 241 | 4.0 | 9.0 | 0.00 | 0.11 | 0.11 | 78 | 1015.9 |
| 20260505150803 | 60 | 344 | 4.0 | 6.0 | 0.00 | 0.11 | 0.11 | 76 | 1015.9 |
| 20260505150302 | 60 | 276 | 4.0 | 9.0 | 0.00 | 0.11 | 0.11 | 76 | 1015.9 |
| 20260505140529 | 59 | 353 | 5.0 | 6.0 | 0.00 | 0.13 | 0.11 | 77 | 1015.9 |
| 20260505130302 | 56 | 241 | 2.0 | 5.0 | 0.00 | 0.13 | 0.11 | 85 | 1015.8 |
| 20260505125025 | 57 | 290 | 2.0 | 6.0 | 0.00 | 0.15 | 0.11 | 80 | 1015.7 |
| 20260505124540 | 58 | 344 | 2.0 | 6.0 | 0.00 | 0.12 | 0.03 | 79 | 1016.1 |
| 20260505124302 | 58 | 244 | 3.0 | 6.0 | 0.00 | 0.15 | 0.11 | 80 | 1015.8 |
| 20260505123803 | 58 | 251 | 5.0 | 6.0 | 0.00 | 0.16 | 0.11 | 86 | 1015.8 |
| 20260505123302 | 58 | 1 | 2.0 | 6.0 | 0.00 | 0.16 | 0.11 | 86 | 1015.6 |
| 20260505123048 | 57 | 303 | 5.0 | 7.0 | 0.00 | 0.12 | 0.03 | 98 | 1016.0 |
| 20260505122804 | 58 | 351 | 5.0 | 5.0 | 0.00 | 0.16 | 0.11 | 86 | 1015.6 |
| 20260505122305 | 58 | 281 | 2.0 | 4.0 | 0.00 | 0.16 | 0.11 | 86 | 1015.7 |
| 20260505122027 | 58 | 323 | 4.0 | 7.0 | 0.00 | 0.16 | 0.11 | 86 | 1015.8 |
| 20260505121536 | 57 | 306 | 3.0 | 8.0 | 0.00 | 0.12 | 0.03 | 100 | 1016.0 |
| 20260505121525 | 58 | 312 | 7.0 | 7.0 | 0.00 | 0.16 | 0.11 | 86 | 1015.7 |
| 20260505120802 | 0 | 0.0 | 0.0 | 0.00 | 0.16 | 0.11 | 1015.7 | ||
| 20260505120303 | 0 | 321 | 3.0 | 4.0 | 0.00 | 0.16 | 0.11 | 1015.8 | |
| 20260505120048 | 56 | 282 | 2.0 | 4.0 | 0.00 | 0.12 | 0.03 | 100 | 1016.1 |
| 20260505115801 | 57 | 321 | 3.0 | 4.0 | 0.00 | 0.16 | 0.08 | 86 | 1015.8 |
| 20260505115304 | 57 | 8 | 2.0 | 6.0 | 0.00 | 0.16 | 0.08 | 86 | 1015.8 |
| 20260505114802 | 57 | 330 | 4.0 | 6.0 | 0.00 | 0.16 | 0.08 | 86 | 1015.8 |
| 20260505114538 | 56 | 347 | 2.0 | 5.0 | 0.00 | 0.14 | 0.03 | 100 | 1016.1 |
| 20260505114302 | 56 | 344 | 2.0 | 5.0 | 0.00 | 0.16 | 0.08 | 86 | 1015.9 |
| 20260505114028 | 57 | 320 | 3.0 | 5.0 | 0.01 | 0.16 | 0.08 | 87 | 1015.7 |
| 20260505113302 | 57 | 296 | 3.0 | 6.0 | 0.01 | 0.16 | 0.08 | 87 | 1015.8 |
| 20260505113038 | 56 | 323 | 2.0 | 3.0 | 0.00 | 0.14 | 0.03 | 100 | 1016.0 |
| 20260505112802 | 57 | 344 | 3.0 | 6.0 | 0.01 | 0.16 | 0.08 | 88 | 1015.7 |
| 20260505112304 | 56 | 178 | 2.0 | 5.0 | 0.01 | 0.16 | 0.08 | 87 | 1015.7 |
| 20260505112247 | 57 | 323 | 4.0 | 6.0 | 0.02 | 0.16 | 0.08 | 89 | 1015.6 |
| 20260505111536 | 56 | 17 | 3.0 | 5.0 | 0.00 | 0.14 | 0.03 | 100 | 1016.0 |
| 20260505111303 | 57 | 350 | 3.0 | 6.0 | 0.02 | 0.17 | 0.08 | 91 | 1015.6 |
| 20260505110802 | 0 | 6 | 4.0 | 4.0 | 0.02 | 0.17 | 0.08 | 1015.6 | |
| 20260505110303 | 0 | 327 | 4.0 | 4.0 | 0.02 | 0.17 | 0.11 | 1015.7 | |
| 20260505101802 | 0 | 275 | 1.0 | 1.0 | 0.04 | 0.15 | 0.05 | 1015.7 | |
| 20260505101539 | 53 | 218 | 1.0 | 2.0 | 0.00 | 0.14 | 0.03 | 100 | 1016.0 |
| 20260505101303 | 0 | 0.0 | 0.0 | 0.04 | 0.15 | 0.05 | 1015.7 | ||
| 20260505100802 | 0 | 0.0 | 0.0 | 0.04 | 0.15 | 0.05 | 1015.6 | ||
| 20260505100303 | 0 | 0.0 | 0.0 | 0.04 | 0.15 | 0.05 | 1015.6 | ||
| 20260505100035 | 53 | 309 | 1.0 | 3.0 | 0.00 | 0.14 | 0.03 | 100 | 1015.9 |
| 20260505095802 | 0 | 0.0 | 0.0 | 0.04 | 0.15 | 0.05 | 1015.6 | ||
| 20260505095304 | 0 | 0.0 | 0.0 | 0.04 | 0.15 | 0.05 | 1015.6 | ||
| 20260505094801 | 0 | 0.0 | 0.0 | 0.04 | 0.15 | 0.05 | 1015.5 | ||
| 20260505094536 | 53 | 196 | 0.0 | 2.0 | 0.00 | 0.14 | 0.03 | 100 | 1015.8 |
| 20260505094302 | 54 | 269 | 2.0 | 3.0 | 0.04 | 0.15 | 0.05 | 94 | 1015.5 |
| 20260505094024 | 54 | 269 | 2.0 | 3.0 | 0.05 | 0.15 | 0.05 | 94 | 1015.6 |
| 20260505093302 | 0 | 269 | 1.0 | 2.0 | 0.01 | 0.11 | 0.04 | 1015.5 | |
| 20260505093043 | 53 | 239 | 1.0 | 3.0 | 0.00 | 0.14 | 0.03 | 100 | 1015.8 |
| 20260505092802 | 55 | 79 | 2.0 | 2.0 | 0.02 | 0.11 | 0.04 | 94 | 1015.5 |
| 20260505092305 | 55 | 296 | 1.0 | 2.0 | 0.02 | 0.11 | 0.04 | 94 | 1015.5 |
| 20260505091802 | 56 | 234 | 1.0 | 3.0 | 0.01 | 0.11 | 0.04 | 95 | 1015.5 |
| 20260505091537 | 53 | 232 | 1.0 | 2.0 | 0.00 | 0.14 | 0.03 | 100 | 1015.8 |
| 20260505091302 | 55 | 178 | 1.0 | 4.0 | 0.01 | 0.11 | 0.04 | 95 | 1015.4 |
| 20260505090802 | 55 | 234 | 1.0 | 4.0 | 0.01 | 0.11 | 0.04 | 95 | 1015.3 |
| 20260505090302 | 54 | 89 | 2.0 | 3.0 | 0.01 | 0.11 | 0.04 | 95 | 1015.4 |
| 20260505090045 | 53 | 1.0 | 2.0 | 0.00 | 0.14 | 0.03 | 100 | 1015.6 | |
| 20260505085802 | 54 | 149 | 1.0 | 2.0 | 0.01 | 0.11 | 0.02 | 96 | 1015.4 |
| 20260505085304 | 53 | 124 | 2.0 | 2.0 | 0.01 | 0.11 | 0.02 | 96 | 1015.4 |
| 20260505084801 | 0 | 142 | 1.0 | 2.0 | 0.02 | 0.11 | 0.02 | 1015.5 | |
| 20260505084550 | 48 | 0 | 0.0 | 3.0 | 0.00 | 0.14 | 0.03 | 100 | 1015.8 |
| 20260505084302 | 52 | 140 | 2.0 | 2.0 | 0.02 | 0.11 | 0.02 | 95 | 1015.5 |
| 20260505083802 | 52 | 223 | 2.0 | 3.0 | 0.02 | 0.10 | 0.02 | 95 | 1015.5 |
| 20260505083302 | 50 | 296 | 1.0 | 3.0 | 0.02 | 0.10 | 0.02 | 95 | 1015.5 |
| 20260505083053 | 48 | 0 | 2.0 | 3.0 | 0.00 | 0.14 | 0.03 | 100 | 1015.8 |
| 20260505082802 | 50 | 168 | 2.0 | 2.0 | 0.02 | 0.10 | 0.00 | 95 | 1015.5 |
| 20260505082744 | 0 | 178 | 1.0 | 1.0 | 0.02 | 0.10 | 0.00 | 1015.5 | |
| 20260505081802 | 0 | 178 | 1.0 | 1.0 | 0.02 | 0.10 | 0.00 | 1015.4 | |
| 20260505081551 | 48 | 160 | 1.0 | 2.0 | 0.00 | 0.14 | 0.03 | 100 | 1015.8 |
| 20260505081301 | 50 | 45 | 0.0 | 0.0 | 0.02 | 0.10 | 0.00 | 95 | 1015.5 |
| 20260505080802 | 50 | 45 | 0.0 | 0.0 | 0.02 | 0.10 | 0.00 | 95 | 1015.6 |
| 20260505080301 | 0 | 0.0 | 0.0 | 0.02 | 0.10 | 0.00 | 1015.5 | ||
| 20260505080052 | 48 | 141 | 0.0 | 2.0 | 0.00 | 0.14 | 0.03 | 100 | 1015.8 |
| 20260505080026 | 0 | 148 | 2.0 | 2.0 | 0.02 | 0.10 | 0.00 | 1015.5 | |
| 20260505075525 | 0 | 148 | 2.0 | 2.0 | 0.02 | 0.10 | 0.00 | 1015.6 | |
| 20260505074803 | 50 | 135 | 1.0 | 1.0 | 0.00 | 0.08 | 0.02 | 94 | 1015.6 |
| 20260505074534 | 48 | 169 | 1.0 | 1.0 | 0.00 | 0.14 | 0.03 | 100 | 1015.8 |
| 20260505074302 | 50 | 117 | 1.0 | 1.0 | 0.00 | 0.08 | 0.02 | 94 | 1015.5 |
| 20260505073803 | 0 | 109 | 1.0 | 1.0 | 0.00 | 0.08 | 0.02 | 1015.5 | |
| 20260505073301 | 50 | 269 | 0.0 | 1.0 | 0.00 | 0.08 | 0.02 | 94 | 1015.4 |
| 20260505073049 | 48 | 0 | 1.0 | 2.0 | 0.00 | 0.14 | 0.03 | 100 | 1015.8 |
| 20260505072804 | 50 | 152 | 1.0 | 1.0 | 0.00 | 0.08 | 0.02 | 94 | 1015.5 |
| 20260505072302 | 50 | 157 | 1.0 | 1.0 | 0.01 | 0.08 | 0.02 | 94 | 1015.6 |
| 20260505071803 | 0 | 0.0 | 0.0 | 0.01 | 0.08 | 0.02 | 1015.6 | ||
| 20260505071544 | 48 | 165 | 1.0 | 2.0 | 0.03 | 0.14 | 0.03 | 100 | 1015.8 |
| 20260505071303 | 0 | 0.0 | 0.0 | 0.01 | 0.08 | 0.02 | 1015.5 | ||
| 20260505070803 | 0 | 0.0 | 0.0 | 0.01 | 0.08 | 0.02 | 1015.3 | ||
| 20260505070526 | 0 | 0.0 | 0.0 | 0.01 | 0.08 | 0.02 | 1015.2 | ||
| 20260505070042 | 48 | 0 | 0.0 | 2.0 | 0.03 | 0.14 | 0.03 | 100 | 1015.5 |
| 20260505065803 | 0 | 0.0 | 0.0 | 0.01 | 0.08 | 0.01 | 1015.2 | ||
| 20260505065303 | 0 | 0.0 | 0.0 | 0.02 | 0.08 | 0.01 | 1015.2 | ||
| 20260505064803 | 49 | 178 | 1.0 | 1.0 | 0.02 | 0.08 | 0.01 | 94 | 1015.2 |
| 20260505064536 | 48 | 0 | 0.0 | 1.0 | 0.03 | 0.14 | 0.03 | 100 | 1015.6 |
| 20260505064302 | 49 | 178 | 1.0 | 1.0 | 0.02 | 0.08 | 0.01 | 94 | 1015.3 |
| 20260505063803 | 49 | 269 | 0.0 | 0.0 | 0.02 | 0.08 | 0.01 | 94 | 1015.4 |
| 20260505063301 | 49 | 32 | 0.0 | 0.0 | 0.01 | 0.08 | 0.00 | 94 | 1015.3 |
| 20260505063039 | 48 | 178 | 1.0 | 2.0 | 0.03 | 0.14 | 0.03 | 100 | 1015.5 |
| 20260505063022 | 0 | 135 | 0.0 | 2.0 | 0.01 | 0.08 | 0.00 | 1015.2 | |
| 20260505062304 | 49 | 178 | 2.0 | 2.0 | 0.01 | 0.07 | 0.00 | 94 | 1015.2 |
| 20260505061803 | 49 | 269 | 2.0 | 2.0 | 0.01 | 0.07 | 0.00 | 94 | 1015.1 |
| 20260505061539 | 48 | 209 | 2.0 | 2.0 | 0.00 | 0.11 | 0.00 | 100 | 1015.5 |
| 20260505061302 | 0 | 193 | 1.0 | 1.0 | 0.00 | 0.07 | 0.00 | 1015.1 | |
| 20260505060803 | 0 | 193 | 1.0 | 1.0 | 0.00 | 0.07 | 0.00 | 1015.1 | |
| 20260505060302 | 0 | 142 | 2.0 | 2.0 | 0.00 | 0.07 | 0.00 | 1015.2 | |
| 20260505060055 | 48 | 165 | 1.0 | 2.0 | 0.00 | 0.11 | 0.00 | 100 | 1015.4 |
| 20260505055804 | 0 | 142 | 2.0 | 2.0 | 0.00 | 0.07 | 0.00 | 1015.1 | |
| 20260505055303 | 48 | 223 | 1.0 | 1.0 | 0.00 | 0.07 | 0.00 | 94 | 1015.2 |
| 20260505054804 | 48 | 223 | 1.0 | 1.0 | 0.00 | 0.07 | 0.00 | 94 | 1015.1 |
| 20260505054537 | 48 | 0 | 0.0 | 1.0 | 0.00 | 0.11 | 0.00 | 100 | 1015.5 |
| 20260505054302 | 0 | 45 | 0.0 | 1.0 | 0.00 | 0.07 | 0.00 | 1015.2 | |
| 20260505054251 | 0 | 269 | 0.0 | 0.0 | 0.00 | 0.07 | 0.00 | 1015.1 | |
| 20260505053258 | 48 | 178 | 0.0 | 0.0 | 0.00 | 0.07 | 0.00 | 94 | 1015.1 |
| 20260505053038 | 48 | 0 | 0.0 | 2.0 | 0.00 | 0.11 | 0.00 | 100 | 1015.4 |
| 20260505052751 | 48 | 178 | 0.0 | 0.0 | 0.00 | 0.07 | 0.00 | 94 | 1015.0 |
| 20260505052251 | 48 | 223 | 0.0 | 1.0 | 0.00 | 0.07 | 0.00 | 93 | 1015.0 |
| 20260505051751 | 48 | 178 | 1.0 | 1.0 | 0.00 | 0.07 | 0.00 | 93 | 1015.1 |
| 20260505051539 | 52 | 158 | 1.0 | 2.0 | 0.00 | 0.11 | 0.00 | 100 | 1015.3 |
| 20260505051244 | 0 | 145 | 1.0 | 1.0 | 0.00 | 0.07 | 0.00 | 1015.0 | |
| 20260505050744 | 0 | 171 | 1.0 | 2.0 | 0.00 | 0.07 | 0.00 | 1015.0 | |
| 20260505050458 | 0 | 171 | 1.0 | 2.0 | 0.00 | 0.07 | 0.00 | 1014.9 | |
| 20260505041701 | 0 | 157 | 3.0 | 3.0 | 0.00 | 0.07 | 0.00 | 1015.0 | |
| 20260505041548 | 52 | 0 | 1.0 | 3.0 | 0.00 | 0.11 | 0.00 | 100 | 1015.4 |
| 20260505041203 | 0 | 0.0 | 0.0 | 0.00 | 0.07 | 0.00 | 1015.1 | ||
| 20260505040656 | 0 | 0.0 | 0.0 | 0.00 | 0.07 | 0.00 | 1015.1 | ||
| 20260505040150 | 0 | 0.0 | 0.0 | 0.00 | 0.07 | 0.00 | 1015.2 | ||
| 20260505040034 | 52 | 178 | 1.0 | 3.0 | 0.00 | 0.11 | 0.00 | 100 | 1015.5 |
| 20260505035643 | 0 | 0.0 | 0.0 | 0.00 | 0.07 | 0.00 | 1015.2 | ||
| 20260505035131 | 0 | 0.0 | 0.0 | 0.00 | 0.07 | 0.00 | 1015.3 | ||
| 20260505034629 | 0 | 0.0 | 0.0 | 0.00 | 0.07 | 0.00 | 1015.3 | ||
| 20260505034539 | 52 | 151 | 1.0 | 4.0 | 0.00 | 0.11 | 0.00 | 100 | 1015.5 |
| 20260505034123 | 0 | 154 | 3.0 | 3.0 | 0.00 | 0.07 | 0.00 | 1015.2 | |
| 20260505033622 | 0 | 154 | 3.0 | 3.0 | 0.00 | 0.07 | 0.00 | 1015.2 | |
| 20260505033115 | 0 | 0.0 | 0.0 | 0.00 | 0.07 | 0.00 | 1015.2 | ||
| 20260505033035 | 52 | 158 | 2.0 | 4.0 | 0.00 | 0.11 | 0.00 | 100 | 1015.5 |
| 20260505032604 | 0 | 178 | 2.0 | 2.0 | 0.00 | 0.07 | 0.00 | 1015.2 | |
| 20260505032548 | 0 | 178 | 2.0 | 2.0 | 0.00 | 0.07 | 0.00 | 1015.3 | |
| 20260505031603 | 0 | 148 | 2.0 | 2.0 | 0.00 | 0.07 | 0.00 | 1015.2 | |
| 20260505031536 | 52 | 124 | 2.0 | 2.0 | 0.00 | 0.11 | 0.00 | 100 | 1015.6 |
| 20260505031102 | 0 | 148 | 2.0 | 2.0 | 0.00 | 0.07 | 0.00 | 1015.4 | |
| 20260505030604 | 0 | 0.0 | 0.0 | 0.00 | 0.07 | 0.00 | 1015.3 | ||
| 20260505030046 | 52 | 221 | 1.0 | 2.0 | 0.00 | 0.11 | 0.00 | 100 | 1015.7 |
| 20260505025604 | 0 | 0.0 | 0.0 | 0.00 | 0.07 | 0.00 | 1015.3 | ||
| 20260505025102 | 0 | 0.0 | 0.0 | 0.00 | 0.07 | 0.00 | 1015.4 | ||
| 20260505024603 | 0 | 0.0 | 0.0 | 0.00 | 0.07 | 0.00 | 1015.4 | ||
| 20260505024540 | 52 | 142 | 1.0 | 6.0 | 0.00 | 0.11 | 0.00 | 100 | 1015.7 |
| 20260505024102 | 47 | 157 | 3.0 | 3.0 | 0.00 | 0.07 | 0.00 | 93 | 1015.3 |
| 20260505023604 | 47 | 157 | 3.0 | 3.0 | 0.00 | 0.07 | 0.00 | 93 | 1015.3 |
| 20260505023102 | 0 | 0.0 | 0.0 | 0.00 | 0.07 | 0.00 | 1015.4 | ||
| 20260505023038 | 52 | 153 | 1.0 | 3.0 | 0.00 | 0.11 | 0.00 | 100 | 1015.7 |
| 20260505022600 | 0 | 213 | 1.0 | 1.0 | 0.00 | 0.07 | 0.00 | 1015.3 | |
| 20260505022318 | 47 | 213 | 1.0 | 2.0 | 0.00 | 0.07 | 0.00 | 93 | 1015.3 |
| 20260505021553 | 47 | 159 | 2.0 | 2.0 | 0.00 | 0.07 | 0.00 | 93 | 1015.4 |
| 20260505021538 | 52 | 178 | 1.0 | 4.0 | 0.00 | 0.11 | 0.00 | 100 | 1015.7 |
| 20260505021052 | 47 | 152 | 1.0 | 2.0 | 0.00 | 0.07 | 0.00 | 93 | 1015.4 |
| 20260505020813 | 0 | 171 | 2.0 | 3.0 | 0.00 | 0.07 | 0.00 | 1015.4 | |
| 20260505020057 | 47 | 152 | 3.0 | 3.0 | 0.00 | 0.07 | 0.00 | 93 | 1015.5 |
| 20260505020040 | 52 | 162 | 1.0 | 4.0 | 0.00 | 0.11 | 0.00 | 100 | 1015.8 |
| 20260505015553 | 47 | 161 | 1.0 | 3.0 | 0.00 | 0.07 | 0.00 | 93 | 1015.5 |
| 20260505015052 | 48 | 161 | 3.0 | 3.0 | 0.00 | 0.07 | 0.00 | 93 | 1015.6 |
| 20260505015021 | 48 | 161 | 1.0 | 3.0 | 0.00 | 0.07 | 0.00 | 93 | 1015.6 |
| 20260505015016 | 48 | 161 | 2.0 | 3.0 | 0.00 | 0.07 | 0.00 | 93 | 1015.6 |
| 20260505014559 | 52 | 0 | 1.0 | 3.0 | 0.00 | 0.11 | 0.00 | 100 | 1015.9 |
| 20260505013553 | 48 | 157 | 1.0 | 2.0 | 0.00 | 0.07 | 0.00 | 93 | 1015.5 |
| 20260505013052 | 48 | 157 | 1.0 | 2.0 | 0.00 | 0.07 | 0.00 | 93 | 1015.7 |
| 20260505013047 | 52 | 178 | 0.0 | 2.0 | 0.00 | 0.11 | 0.00 | 100 | 1016.0 |
| 20260505012552 | 48 | 178 | 1.0 | 1.0 | 0.00 | 0.07 | 0.00 | 93 | 1015.7 |
| 20260505012057 | 48 | 206 | 0.0 | 2.0 | 0.00 | 0.07 | 0.00 | 93 | 1015.7 |
| 20260505011817 | 48 | 206 | 2.0 | 3.0 | 0.00 | 0.07 | 0.00 | 93 | 1015.7 |
| 20260505011540 | 52 | 162 | 2.0 | 3.0 | 0.00 | 0.11 | 0.00 | 100 | 1016.1 |
| 20260505011051 | 48 | 206 | 1.0 | 3.0 | 0.00 | 0.07 | 0.00 | 93 | 1015.7 |
| 20260505010552 | 48 | 178 | 1.0 | 2.0 | 0.00 | 0.07 | 0.00 | 93 | 1015.7 |
| 20260505010051 | 48 | 178 | 1.0 | 2.0 | 0.00 | 0.07 | 0.00 | 94 | 1015.7 |
| 20260505010041 | 52 | 178 | 0.0 | 2.0 | 0.00 | 0.11 | 0.00 | 100 | 1016.1 |
| 20260505005552 | 48 | 223 | 1.0 | 2.0 | 0.00 | 0.07 | 0.00 | 94 | 1015.8 |
| 20260505005051 | 48 | 223 | 1.0 | 3.0 | 0.00 | 0.07 | 0.00 | 93 | 1015.8 |
| 20260505004602 | 48 | 269 | 1.0 | 3.0 | 0.00 | 0.07 | 0.00 | 93 | 1015.9 |
| 20260505004544 | 52 | 178 | 1.0 | 3.0 | 0.00 | 0.11 | 0.00 | 100 | 1016.3 |
| 20260505004050 | 48 | 178 | 2.0 | 4.0 | 0.00 | 0.07 | 0.00 | 93 | 1015.9 |
| 20260505003812 | 48 | 171 | 2.0 | 4.0 | 0.00 | 0.07 | 0.00 | 93 | 1016.0 |
| 20260505003051 | 52 | 0 | 0.0 | 1.0 | 0.00 | 0.11 | 0.00 | 100 | 1016.3 |
| 20260505002552 | 49 | 223 | 0.0 | 3.0 | 0.00 | 0.07 | 0.00 | 93 | 1016.0 |
| 20260505002050 | 49 | 197 | 1.0 | 3.0 | 0.00 | 0.07 | 0.00 | 93 | 1016.0 |
| 20260505001551 | 49 | 178 | 1.0 | 2.0 | 0.00 | 0.07 | 0.00 | 93 | 1016.0 |
| 20260505001534 | 52 | 178 | 0.0 | 1.0 | 0.00 | 0.11 | 0.00 | 100 | 1016.3 |
| 20260505001050 | 49 | 161 | 1.0 | 1.0 | 0.00 | 0.07 | 0.00 | 93 | 1016.0 |
| 20260505000550 | 49 | 45 | 1.0 | 1.0 | 0.00 | 0.07 | 0.00 | 93 | 1016.1 |
| 20260505000050 | 49 | 206 | 1.0 | 2.0 | 0.00 | 0.07 | 0.00 | 93 | 1016.1 |
| 20260505000037 | 52 | 178 | 0.0 | 1.0 | 0.00 | 0.11 | 0.00 | 100 | 1016.4 |
| 20260504235550 | 49 | 178 | 1.0 | 2.0 | 0.00 | 0.07 | 0.00 | 93 | 1016.1 |
| 20260504235049 | 49 | 165 | 0.0 | 3.0 | 0.00 | 0.07 | 0.00 | 93 | 1016.2 |
| 20260504234551 | 49 | 241 | 0.0 | 3.0 | 0.00 | 0.07 | 0.00 | 93 | 1016.1 |
| 20260504234535 | 52 | 165 | 0.0 | 2.0 | 0.00 | 0.11 | 0.00 | 100 | 1016.4 |
| 20260504234311 | 49 | 165 | 1.0 | 2.0 | 0.00 | 0.07 | 0.00 | 93 | 1016.1 |
| 20260504233551 | 49 | 269 | 0.0 | 1.0 | 0.00 | 0.07 | 0.00 | 93 | 1016.2 |
| 20260504233049 | 49 | 178 | 1.0 | 1.0 | 0.00 | 0.07 | 0.00 | 93 | 1016.1 |
| 20260504233035 | 52 | 265 | 0.0 | 1.0 | 0.00 | 0.11 | 0.00 | 100 | 1016.5 |
| 20260504232550 | 49 | 213 | 0.0 | 2.0 | 0.00 | 0.07 | 0.00 | 93 | 1016.2 |
| 20260504232306 | 49 | 269 | 1.0 | 2.0 | 0.00 | 0.07 | 0.00 | 93 | 1016.1 |
| 20260504231550 | 49 | 178 | 0.0 | 2.0 | 0.00 | 0.07 | 0.00 | 93 | 1016.2 |
| 20260504231539 | 52 | 0 | 0.0 | 1.0 | 0.00 | 0.11 | 0.00 | 100 | 1016.5 |
| 20260504231049 | 49 | 223 | 0.0 | 1.0 | 0.00 | 0.07 | 0.00 | 93 | 1016.3 |
| 20260504230549 | 49 | 45 | 1.0 | 1.0 | 0.00 | 0.07 | 0.00 | 93 | 1016.2 |
| 20260504230049 | 49 | 178 | 1.0 | 3.0 | 0.00 | 0.07 | 0.00 | 93 | 1016.3 |
| 20260504230035 | 52 | 221 | 0.0 | 2.0 | 0.00 | 0.11 | 0.00 | 100 | 1016.6 |
| 20260504225550 | 49 | 161 | 1.0 | 3.0 | 0.00 | 0.07 | 0.00 | 92 | 1016.3 |
| 20260504225048 | 49 | 152 | 2.0 | 3.0 | 0.00 | 0.07 | 0.00 | 92 | 1016.2 |
| 20260504224808 | 49 | 145 | 1.0 | 2.0 | 0.00 | 0.07 | 0.00 | 92 | 1016.3 |
| 20260504224533 | 52 | 162 | 0.0 | 1.0 | 0.00 | 0.11 | 0.00 | 100 | 1016.6 |
| 20260504224048 | 49 | 178 | 1.0 | 1.0 | 0.00 | 0.07 | 0.00 | 92 | 1016.3 |